Grafton, IL

3:22 AM CST on February 25, 2017 (GMT -0600)
Saint Charles County Smartt

Weather History for KSET - February, 2014

Change the Weather History Date:

Friday, February 14, 2014

  Actual Average (KSTL) Record (KSTL)
Temperature  
Mean Temperature 24 °F -  
Max Temperature 32 °F 43 °F 74 °F (1954)
Min Temperature 15 °F 25 °F -2 °F (1905)
Degree Days  
Heating Degree Days 41    
Moisture  
Dew Point 19 °F    
Average Humidity 83    
Maximum Humidity 96    
Minimum Humidity 68    
Precipitation  
Precipitation 0.00 in - - ()
Sea Level Pressure  
Sea Level Pressure 29.81 in    
Wind  
Wind Speed 9 mph (North)    
Max Wind Speed 18 mph    
Max Gust Speed 23 mph    
Visibility 5 miles    
Events Rain , Snow    
Averages and records for this station are not official NWS values.
T = Trace of Precipitation, MM = Missing Value Source: NWS Daily Summary

Daily Weather History Graph

Daily Weather History Graph

Search for Another Location

Airport or City:

Trip Planner

Search our weather history database for the weather conditions in past years. The results will help you decide how hot, cold, wet, or windy it might be!

Date:

Astronomy

Feb. 14, 2014 Rise Set
Actual Time 6:54 AM CST 5:38 PM CST
Civil Twilight 6:26 AM CST 6:05 PM CST
Nautical Twilight 5:55 AM CST 6:36 PM CST
Astronomical Twilight 5:24 AM CST 7:07 PM CST
Moon 5:41 PM CST (2/14) 6:21 AM CST (2/14)
Length of Visible Light 11h 38m
Length of Day
10h 43m
Full, 100% of the Moon is Illuminated
Feb 14
Full
Feb 14
Full
Feb 22
Last Quarter
Mar 1
New
Mar 8
First Quarter

Hourly Weather History & Observations

Time (CST) Temp. Windchill Dew Point Humidity Pressure Visibility Wind Dir Wind Speed Gust Speed Precip Events Conditions
12:54 AM 32.0 °F 24.8 °F 27.0 °F 82% 29.77 in 9.0 mi West 8.1 mph - N/A   Clear
1:54 AM 26.1 °F - 23.0 °F 88% 29.75 in 7.0 mi Calm Calm - N/A   Clear
2:54 AM 23.0 °F - 21.9 °F 96% 29.73 in 4.0 mi Calm Calm - N/A   Clear
3:05 AM 24.1 °F - 21.9 °F 91% 29.72 in 1.5 mi Calm Calm - N/A   Clear
3:27 AM 23.0 °F 18.4 °F 21.9 °F 96% 29.73 in 2.0 mi WSW 3.5 mph - N/A   Clear
3:40 AM 21.9 °F - 21.0 °F 96% 29.73 in 3.0 mi Calm Calm - N/A   Clear
3:54 AM 23.0 °F 15.8 °F 21.9 °F 96% 29.74 in 2.5 mi NNE 5.8 mph - N/A   Scattered Clouds
4:04 AM 25.0 °F 19.3 °F 24.1 °F 96% 29.74 in 5.0 mi NNE 4.6 mph - N/A   Mostly Cloudy
4:54 AM 28.9 °F 22.8 °F 25.0 °F 85% 29.75 in 10.0 mi NE 5.8 mph - N/A   Mostly Cloudy
5:54 AM 28.9 °F 18.2 °F 21.0 °F 72% 29.76 in 10.0 mi NNE 13.8 mph - 0.00 in   Overcast
6:54 AM 28.0 °F 17.5 °F 23.0 °F 81% 29.68 in 10.0 mi East 12.7 mph - 0.00 in   Overcast
7:54 AM 28.9 °F 20.4 °F 24.1 °F 82% 29.66 in 8.0 mi ESE 9.2 mph - 0.00 in   Overcast
8:54 AM 26.1 °F 12.7 °F 19.9 °F 78% 29.66 in 4.0 mi ENE 18.4 mph - 0.00 in Snow Light Snow
9:20 AM 25.0 °F 12.2 °F 18.0 °F 75% 29.69 in 10.0 mi NE 16.1 mph - 0.00 in   Overcast
9:31 AM 25.0 °F 14.2 °F 19.0 °F 78% 29.70 in 1.8 mi NNE 11.5 mph - 0.00 in Snow Light Snow
9:54 AM 24.1 °F 17.0 °F 19.9 °F 84% 29.73 in 0.8 mi NE 5.8 mph - 0.00 in Snow Light Snow
10:16 AM 24.1 °F 13.1 °F 21.0 °F 88% 29.70 in 1.2 mi ENE 11.5 mph - 0.00 in Snow Light Snow
10:25 AM 24.1 °F 12.5 °F 21.0 °F 88% 29.70 in 3.0 mi ENE 12.7 mph - 0.00 in Snow Light Snow
10:54 AM 24.1 °F 13.7 °F 19.9 °F 84% 29.72 in 8.0 mi NE 10.4 mph - 0.00 in   Overcast
11:36 AM 24.1 °F 11.5 °F 21.0 °F 88% 29.72 in 7.0 mi North 15.0 mph - N/A   Overcast
11:54 AM 24.1 °F 11.5 °F 19.9 °F 84% 29.75 in 6.0 mi North 15.0 mph - N/A   Overcast
12:54 PM 23.0 °F 11.7 °F 19.0 °F 85% 29.79 in 4.0 mi North 11.5 mph - N/A   Overcast
1:01 PM 23.0 °F 11.7 °F 19.9 °F 88% 29.78 in 2.0 mi North 11.5 mph - 0.00 in Rain Light Freezing Rain
1:10 PM 23.0 °F 11.7 °F 19.9 °F 88% 29.77 in 1.8 mi North 11.5 mph - 0.00 in Rain Light Freezing Rain
1:17 PM 23.0 °F 11.7 °F 19.9 °F 88% 29.77 in 2.0 mi North 11.5 mph - 0.00 in   Overcast
1:29 PM 23.0 °F 12.4 °F 19.9 °F 88% 29.78 in 3.0 mi NNW 10.4 mph - 0.00 in   Overcast
1:54 PM 23.0 °F 11.1 °F 19.9 °F 88% 29.82 in 2.5 mi NNW 12.7 mph 23.0 mph 0.00 in   Overcast
2:40 PM 23.0 °F 11.7 °F 19.9 °F 88% 29.82 in 2.0 mi NNW 11.5 mph - 0.00 in Rain Light Freezing Rain
2:50 PM 23.0 °F 10.1 °F 19.4 °F 86% 29.83 in 2.5 mi North 15.0 mph 21.9 mph 0.00 in   Overcast
2:54 PM 23.0 °F 11.1 °F 19.9 °F 88% 29.85 in 3.0 mi NNW 12.7 mph 21.9 mph 0.00 in   Overcast
3:43 PM 24.1 °F 13.1 °F 19.0 °F 81% 29.86 in 2.5 mi NNW 11.5 mph - 0.00 in Snow Light Snow
3:54 PM 24.1 °F 13.1 °F 19.9 °F 84% 29.88 in 2.5 mi NW 11.5 mph - 0.00 in Snow Light Snow
4:00 PM 24.1 °F 12.0 °F 19.0 °F 81% 29.87 in 3.0 mi NW 13.8 mph - 0.00 in Snow Light Snow
4:44 PM 23.0 °F 10.1 °F 18.0 °F 81% 29.90 in 2.5 mi NW 15.0 mph - 0.00 in Snow Light Snow
4:54 PM 21.9 °F 7.3 °F 17.1 °F 82% 29.92 in 3.0 mi NW 18.4 mph 23.0 mph 0.00 in Snow Light Snow
5:54 PM 21.0 °F 7.1 °F 15.1 °F 78% 29.96 in 10.0 mi NNW 16.1 mph 23.0 mph 0.00 in   Scattered Clouds
6:54 PM 21.0 °F 7.1 °F 12.0 °F 68% 30.00 in 10.0 mi NW 16.1 mph 23.0 mph N/A   Clear
7:54 PM 19.9 °F 6.2 °F 10.9 °F 68% 30.04 in 10.0 mi NW 15.0 mph 23.0 mph N/A   Clear
8:54 PM 18.0 °F 6.9 °F 10.0 °F 71% 30.06 in 10.0 mi NW 9.2 mph - N/A   Clear
9:54 PM 18.0 °F 2.6 °F 9.0 °F 68% 30.07 in 10.0 mi NNW 17.3 mph 23.0 mph N/A   Clear
10:54 PM 16.0 °F 4.4 °F 8.1 °F 71% 30.09 in 10.0 mi NW 9.2 mph - N/A   Clear
11:54 PM 15.1 °F 1.8 °F 6.1 °F 68% 30.12 in 10.0 mi WNW 11.5 mph - N/A   Clear